Tracking 19634 objects as of 21-May-2019
HD Live streaming from Space Station
objects crossing your sky now

ORSTED

Track ORSTED now!
10-day predictions
ORSTED is classified as:


NORAD ID: 25635
Int'l Code: 1999-008B
Perigee: 639.8 km
Apogee: 837.9 km
Inclination: 96.5 °
Period: 99.4 minutes
Semi major axis: 7109 km
RCS: 0.3282 m2 (medium)
Launch date: February 23, 1999
Source: Denmark (DEN)
Launch site: AIR FORCE WESTERN TEST RANGE (AFWTR)

Magnetometer and a star camera for measurements of the geomagnetic field.
aabbcc
Your satellite tracking list
Your tracking list is empty




NASA's NSSDC Master Catalog

Two Line Element Set (TLE):
1 25635U 99008B   19141.21353265  .00000065  00000-0  22897-4 0  9993
2 25635  96.4800 252.1224 0139346 164.2895 196.2694 14.48149572 67970
Source of the keplerian elements: AFSPC